Time,TemperatureF,DewpointF,PressureIn,WindDirection,WindDirectionDegrees,WindSpeedMPH,WindSpeedGustMPH,Humidity,HourlyPrecipIn,Conditions,Clouds,dailyrainin,SolarRadiationWatts/m^2,SoftwareType,DateUTC
2013-07-17 00:00:00,75.6,69.7,30.25,South,187,0.8,2.3,82,0.00,CLR,,0.00,0.0,WeatherDisplay:10.37,2013-07-17 05:00:00,
2013-07-17 00:02:00,75.5,69.6,30.25,South,187,0.0,1.2,82,0.00,CLR,,0.00,0.0,WeatherDisplay:10.37,2013-07-17 05:02:00,
2013-07-17 00:07:00,75.2,69.3,30.25,South,187,0.1,1.2,82,0.00,CLR,,0.00,0.0,WeatherDisplay:10.37,2013-07-17 05:07:00,
2013-07-17 00:12:00,74.7,68.8,30.25,South,187,0.0,1.2,82,0.00,CLR,,0.00,0.0,WeatherDisplay:10.37,2013-07-17 05:12:00,
2013-07-17 00:17:00,74.3,69.1,30.25,South,187,0.0,0.0,84,0.00,CLR,,0.00,0.0,WeatherDisplay:10.37,2013-07-17 05:17:00,
2013-07-17 00:22:00,73.9,68.4,30.25,South,187,0.0,0.0,83,0.00,CLR,,0.00,0.0,WeatherDisplay:10.37,2013-07-17 05:22:00,
2013-07-17 00:27:00,74.0,69.2,30.25,South,187,0.0,0.0,85,0.00,CLR,,0.00,0.0,WeatherDisplay:10.37,2013-07-17 05:27:00,
2013-07-17 00:32:00,74.3,69.1,30.25,South,187,1.3,3.0,84,0.00,CLR,,0.00,0.0,WeatherDisplay:10.37,2013-07-17 05:32:00,
2013-07-17 00:37:00,74.6,69.4,30.25,South,187,0.3,1.2,84,0.00,CLR,,0.00,0.0,WeatherDisplay:10.37,2013-07-17 05:37:00,
2013-07-17 00:42:00,74.8,69.3,30.25,South,187,0.6,2.3,83,0.00,CLR,,0.00,0.0,WeatherDisplay:10.37,2013-07-17 05:42:00,
2013-07-17 00:47:00,74.8,69.3,30.25,South,187,0.0,1.2,83,0.00,CLR,,0.00,0.0,WeatherDisplay:10.37,2013-07-17 05:47:00,
2013-07-17 00:52:00,74.9,69.4,30.25,South,187,0.0,1.0,83,0.00,CLR,,0.00,0.0,WeatherDisplay:10.37,2013-07-17 05:52:00,
2013-07-17 00:57:00,75.0,69.5,30.25,South,188,0.0,0.0,83,0.00,CLR,,0.00,0.0,WeatherDisplay:10.37,2013-07-17 05:57:00,
2013-07-17 01:02:00,74.8,69.3,30.25,South,188,2.0,3.5,83,0.00,CLR,,0.00,0.0,WeatherDisplay:10.37,2013-07-17 06:02:00,
2013-07-17 01:07:00,74.6,69.4,30.26,South,187,1.5,2.3,84,0.00,CLR,,0.00,0.0,WeatherDisplay:10.37,2013-07-17 06:07:00,
2013-07-17 01:12:00,74.4,69.6,30.26,South,187,0.0,0.0,85,0.00,CLR,,0.00,0.0,WeatherDisplay:10.37,2013-07-17 06:12:00,
2013-07-17 01:17:00,74.3,69.5,30.26,South,187,0.1,1.2,85,0.00,CLR,,0.00,0.0,WeatherDisplay:10.37,2013-07-17 06:17:00,
2013-07-17 01:22:00,74.2,69.4,30.26,South,187,0.1,1.2,85,0.00,CLR,,0.00,0.0,WeatherDisplay:10.37,2013-07-17 06:22:00,
2013-07-17 01:27:00,74.3,69.5,30.26,South,187,0.8,2.3,85,0.00,CLR,,0.00,0.0,WeatherDisplay:10.37,2013-07-17 06:27:00,
2013-07-17 01:32:00,74.2,69.4,30.26,South,187,2.0,3.0,85,0.00,CLR,,0.00,0.0,WeatherDisplay:10.37,2013-07-17 06:32:00,
2013-07-17 01:37:00,74.1,69.6,30.26,South,186,1.4,3.5,86,0.00,CLR,,0.00,0.0,WeatherDisplay:10.37,2013-07-17 06:37:00,
2013-07-17 01:42:00,74.0,69.5,30.25,South,186,0.9,2.0,86,0.00,CLR,,0.00,0.0,WeatherDisplay:10.37,2013-07-17 06:42:00,
2013-07-17 01:47:00,73.7,69.6,30.25,South,186,0.3,1.2,87,0.00,CLR,,0.00,0.0,WeatherDisplay:10.37,2013-07-17 06:47:00,
2013-07-17 01:52:00,73.6,69.5,30.25,South,186,0.0,0.0,87,0.00,CLR,,0.00,0.0,WeatherDisplay:10.37,2013-07-17 06:52:00,
2013-07-17 01:57:00,73.7,69.2,30.25,South,187,0.8,2.0,86,0.00,CLR,,0.00,0.0,WeatherDisplay:10.37,2013-07-17 06:57:00,
2013-07-17 02:02:00,73.9,69.1,30.25,South,187,1.7,3.5,85,0.00,CLR,,0.00,0.0,WeatherDisplay:10.37,2013-07-17 07:02:00,
2013-07-17 02:07:00,74.0,68.9,30.26,South,187,0.4,1.2,84,0.00,CLR,,0.00,0.0,WeatherDisplay:10.37,2013-07-17 07:07:00,
2013-07-17 02:12:00,74.2,68.7,30.26,South,191,1.2,3.5,83,0.00,CLR,,0.00,0.0,WeatherDisplay:10.37,2013-07-17 07:12:00,
2013-07-17 02:17:00,74.2,68.7,30.26,South,186,1.6,3.5,83,0.00,CLR,,0.00,0.0,WeatherDisplay:10.37,2013-07-17 07:17:00,
2013-07-17 02:22:00,74.1,69.0,30.26,South,187,0.8,2.3,84,0.00,CLR,,0.00,0.0,WeatherDisplay:10.37,2013-07-17 07:22:00,
2013-07-17 02:27:00,74.0,68.9,30.26,South,188,1.9,3.5,84,0.00,CLR,,0.00,0.0,WeatherDisplay:10.37,2013-07-17 07:27:00,
2013-07-17 02:32:00,74.1,69.0,30.26,South,186,2.8,5.0,84,0.00,CLR,,0.00,0.0,WeatherDisplay:10.37,2013-07-17 07:32:00,
2013-07-17 02:37:00,74.2,69.1,30.26,SSW,201,1.8,4.6,84,0.00,CLR,,0.00,0.0,WeatherDisplay:10.37,2013-07-17 07:37:00,
2013-07-17 02:42:00,74.1,69.0,30.26,South,176,2.4,4.0,84,0.00,CLR,,0.00,0.0,WeatherDisplay:10.37,2013-07-17 07:42:00,
2013-07-17 02:47:00,74.1,68.6,30.26,SSE,165,3.2,5.0,83,0.00,CLR,,0.00,0.0,WeatherDisplay:10.37,2013-07-17 07:47:00,
2013-07-17 02:52:00,74.3,68.8,30.26,South,178,2.4,6.0,83,0.00,CLR,,0.00,0.0,WeatherDisplay:10.37,2013-07-17 07:52:00,
2013-07-17 02:57:00,74.5,68.6,30.26,SE,146,2.7,4.0,82,0.00,CLR,,0.00,0.0,WeatherDisplay:10.37,2013-07-17 07:57:00,
2013-07-17 03:02:00,74.8,68.6,30.26,South,188,2.9,4.0,81,0.00,CLR,,0.00,0.0,WeatherDisplay:10.37,2013-07-17 08:02:00,
2013-07-17 03:07:00,74.8,68.6,30.26,South,173,2.6,5.0,81,0.00,CLR,,0.00,0.0,WeatherDisplay:10.37,2013-07-17 08:07:00,
2013-07-17 03:12:00,74.8,68.6,30.26,SSW,212,2.6,4.0,81,0.00,CLR,,0.00,0.0,WeatherDisplay:10.37,2013-07-17 08:12:00,
2013-07-17 03:17:00,74.7,68.5,30.26,SSW,200,1.8,3.5,81,0.00,CLR,,0.00,0.0,WeatherDisplay:10.37,2013-07-17 08:17:00,
2013-07-17 03:22:00,74.4,68.5,30.26,SSE,157,2.8,5.0,82,0.00,CLR,,0.00,0.0,WeatherDisplay:10.37,2013-07-17 08:22:00,
2013-07-17 03:27:00,74.2,68.3,30.25,South,180,2.8,5.0,82,0.00,CLR,,0.00,0.0,WeatherDisplay:10.37,2013-07-17 08:27:00,
2013-07-17 03:32:00,74.0,68.5,30.25,South,175,2.2,3.5,83,0.00,CLR,,0.00,0.0,WeatherDisplay:10.37,2013-07-17 08:32:00,
2013-07-17 03:37:00,73.9,68.4,30.25,South,182,1.8,3.5,83,0.00,CLR,,0.00,0.0,WeatherDisplay:10.37,2013-07-17 08:37:00,
2013-07-17 03:42:00,73.9,68.4,30.25,South,182,2.3,4.0,83,0.00,CLR,,0.00,0.0,WeatherDisplay:10.37,2013-07-17 08:42:00,
2013-07-17 03:47:00,74.0,68.2,30.26,South,175,3.0,4.6,82,0.00,CLR,,0.00,0.0,WeatherDisplay:10.37,2013-07-17 08:47:00,
2013-07-17 03:52:00,74.0,68.5,30.26,South,180,3.2,5.0,83,0.00,CLR,,0.00,0.0,WeatherDisplay:10.37,2013-07-17 08:52:00,
2013-07-17 03:57:00,73.9,68.4,30.26,SSE,166,3.1,5.0,83,0.00,CLR,,0.00,0.0,WeatherDisplay:10.37,2013-07-17 08:57:00,
2013-07-17 04:02:00,74.0,68.2,30.26,South,191,2.4,4.6,82,0.00,CLR,,0.00,0.0,WeatherDisplay:10.37,2013-07-17 09:02:00,
2013-07-17 04:07:00,74.1,68.3,30.26,South,182,2.9,4.6,82,0.00,CLR,,0.00,0.0,WeatherDisplay:10.37,2013-07-17 09:07:00,
2013-07-17 04:12:00,74.2,68.3,30.26,SSE,167,3.4,5.0,82,0.00,CLR,,0.00,0.0,WeatherDisplay:10.37,2013-07-17 09:12:00,
2013-07-17 04:17:00,74.2,68.3,30.26,South,173,2.6,6.0,82,0.00,CLR,,0.00,0.0,WeatherDisplay:10.37,2013-07-17 09:17:00,
2013-07-17 04:22:00,74.1,68.3,30.26,SSW,201,3.1,4.0,82,0.00,CLR,,0.00,0.0,WeatherDisplay:10.37,2013-07-17 09:22:00,
2013-07-17 04:27:00,74.0,68.2,30.26,South,181,2.1,4.0,82,0.00,CLR,,0.00,0.0,WeatherDisplay:10.37,2013-07-17 09:27:00,
2013-07-17 04:32:00,73.9,68.1,30.26,SSE,165,2.2,4.0,82,0.00,CLR,,0.00,0.0,WeatherDisplay:10.37,2013-07-17 09:32:00,
2013-07-17 04:37:00,73.9,68.1,30.26,SSE,157,2.5,4.0,82,0.00,CLR,,0.00,0.0,WeatherDisplay:10.37,2013-07-17 09:37:00,
2013-07-17 04:42:00,73.8,68.0,30.26,South,188,2.5,5.0,82,0.00,CLR,,0.00,0.0,WeatherDisplay:10.37,2013-07-17 09:42:00,
2013-07-17 04:47:00,73.8,68.0,30.26,South,189,1.9,3.5,82,0.00,CLR,,0.00,0.0,WeatherDisplay:10.37,2013-07-17 09:47:00,
2013-07-17 04:52:00,73.7,67.9,30.26,SW,215,2.1,3.5,82,0.00,CLR,,0.00,0.0,WeatherDisplay:10.37,2013-07-17 09:52:00,
2013-07-17 04:57:00,73.6,67.8,30.26,SSW,193,1.8,3.5,82,0.00,CLR,,0.00,0.0,WeatherDisplay:10.37,2013-07-17 09:57:00,
2013-07-17 05:02:00,73.5,68.0,30.26,SSE,168,2.5,4.0,83,0.00,CLR,,0.00,0.0,WeatherDisplay:10.37,2013-07-17 10:02:00,
2013-07-17 05:07:00,73.3,67.8,30.26,South,182,2.0,4.0,83,0.00,CLR,,0.00,0.0,WeatherDisplay:10.37,2013-07-17 10:07:00,
2013-07-17 05:12:00,73.3,67.8,30.26,SSE,167,1.8,3.5,83,0.00,CLR,,0.00,0.0,WeatherDisplay:10.37,2013-07-17 10:12:00,
2013-07-17 05:17:00,73.1,68.0,30.26,SSW,206,0.8,3.5,84,0.00,CLR,,0.00,0.0,WeatherDisplay:10.37,2013-07-17 10:17:00,
2013-07-17 05:22:00,73.0,67.9,30.26,South,180,2.4,5.0,84,0.00,CLR,,0.00,0.0,WeatherDisplay:10.37,2013-07-17 10:22:00,
2013-07-17 05:27:00,73.0,67.9,30.26,SSE,164,3.0,6.0,84,0.00,CLR,,0.00,0.0,WeatherDisplay:10.37,2013-07-17 10:27:00,
2013-07-17 05:32:00,72.9,67.8,30.26,South,184,2.7,4.0,84,0.00,CLR,,0.00,0.0,WeatherDisplay:10.37,2013-07-17 10:32:00,
2013-07-17 05:37:00,72.9,67.8,30.26,South,188,2.5,4.0,84,0.00,CLR,,0.00,0.0,WeatherDisplay:10.37,2013-07-17 10:37:00,
2013-07-17 05:42:00,72.8,67.7,30.26,South,190,2.1,3.5,84,0.00,CLR,,0.00,0.0,WeatherDisplay:10.37,2013-07-17 10:42:00,
2013-07-17 05:47:00,72.7,67.6,30.26,South,174,2.2,4.0,84,0.00,CLR,,0.00,0.0,WeatherDisplay:10.37,2013-07-17 10:47:00,
2013-07-17 05:52:00,72.6,67.8,30.26,South,178,2.3,4.0,85,0.00,CLR,,0.00,5.0,WeatherDisplay:10.37,2013-07-17 10:52:00,
2013-07-17 05:57:00,72.4,67.6,30.26,South,173,3.0,4.0,85,0.00,CLR,,0.00,7.0,WeatherDisplay:10.37,2013-07-17 10:57:00,
2013-07-17 06:02:00,72.4,68.0,30.27,South,185,1.8,3.5,86,0.00,CLR,,0.00,11.0,WeatherDisplay:10.37,2013-07-17 11:02:00,
2013-07-17 06:07:00,72.5,68.1,30.27,SSE,168,2.0,3.5,86,0.00,CLR,,0.00,12.0,WeatherDisplay:10.37,2013-07-17 11:07:00,
2013-07-17 06:12:00,72.7,67.9,30.27,South,180,2.8,4.0,85,0.00,CLR,,0.00,14.0,WeatherDisplay:10.37,2013-07-17 11:12:00,
2013-07-17 06:17:00,72.7,67.9,30.27,South,180,1.4,3.0,85,0.00,CLR,,0.00,18.0,WeatherDisplay:10.37,2013-07-17 11:17:00,
2013-07-17 06:22:00,72.8,68.0,30.26,South,180,1.6,3.5,85,0.00,CLR,,0.00,19.0,WeatherDisplay:10.37,2013-07-17 11:22:00,
2013-07-17 06:27:00,72.8,68.0,30.27,SSE,165,2.8,5.0,85,0.00,CLR,,0.00,21.0,WeatherDisplay:10.37,2013-07-17 11:27:00,
2013-07-17 06:32:00,72.9,68.1,30.27,South,169,2.1,3.5,85,0.00,CLR,,0.00,23.0,WeatherDisplay:10.37,2013-07-17 11:32:00,
2013-07-17 06:37:00,72.9,68.1,30.27,South,172,2.2,5.0,85,0.00,CLR,,0.00,25.0,WeatherDisplay:10.37,2013-07-17 11:37:00,
2013-07-17 06:42:00,72.9,68.1,30.27,South,185,3.6,5.0,85,0.00,CLR,,0.00,28.0,WeatherDisplay:10.37,2013-07-17 11:42:00,
2013-07-17 06:47:00,72.9,68.1,30.27,South,169,3.5,4.0,85,0.00,CLR,,0.00,35.0,WeatherDisplay:10.37,2013-07-17 11:47:00,
2013-07-17 06:52:00,73.0,68.2,30.27,South,177,3.8,6.0,85,0.00,CLR,,0.00,51.0,WeatherDisplay:10.37,2013-07-17 11:52:00,
2013-07-17 06:57:00,73.1,68.3,30.27,SSW,207,2.6,4.0,85,0.00,CLR,,0.00,69.0,WeatherDisplay:10.37,2013-07-17 11:57:00,
2013-07-17 07:02:00,73.2,68.8,30.27,South,187,2.3,4.0,86,0.00,CLR,,0.00,104.0,WeatherDisplay:10.37,2013-07-17 12:02:00,
2013-07-17 07:07:00,73.5,68.7,30.27,SSW,195,2.4,5.0,85,0.00,CLR,,0.00,121.0,WeatherDisplay:10.37,2013-07-17 12:07:00,
2013-07-17 07:12:00,73.8,68.7,30.27,SW,223,2.9,6.0,84,0.00,CLR,,0.00,134.0,WeatherDisplay:10.37,2013-07-17 12:12:00,
2013-07-17 07:17:00,74.1,68.6,30.27,SSE,159,4.5,6.0,83,0.00,CLR,,0.00,142.0,WeatherDisplay:10.37,2013-07-17 12:17:00,
2013-07-17 07:22:00,74.4,68.5,30.27,SSE,161,3.1,6.0,82,0.00,CLR,,0.00,158.0,WeatherDisplay:10.37,2013-07-17 12:22:00,
2013-07-17 07:27:00,74.6,68.7,30.27,SSE,161,4.0,6.0,82,0.00,CLR,,0.00,176.0,WeatherDisplay:10.37,2013-07-17 12:27:00,
2013-07-17 07:32:00,74.8,68.6,30.27,South,189,3.2,5.0,81,0.00,CLR,,0.00,193.0,WeatherDisplay:10.37,2013-07-17 12:32:00,
2013-07-17 07:37:00,75.1,68.9,30.27,SSE,157,4.3,6.0,81,0.00,CLR,,0.00,216.0,WeatherDisplay:10.37,2013-07-17 12:37:00,
2013-07-17 07:42:00,75.5,69.3,30.27,South,169,3.9,6.0,81,0.00,CLR,,0.00,236.0,WeatherDisplay:10.37,2013-07-17 12:42:00,
2013-07-17 07:47:00,75.9,68.9,30.27,South,180,4.5,6.0,79,0.00,CLR,,0.00,255.0,WeatherDisplay:10.37,2013-07-17 12:47:00,
2013-07-17 07:52:00,76.5,69.5,30.27,South,178,4.1,8.1,79,0.00,CLR,,0.00,272.0,WeatherDisplay:10.37,2013-07-17 12:52:00,
2013-07-17 07:58:00,76.8,69.4,30.27,South,178,1.7,3.5,78,0.00,CLR,,0.00,271.0,WeatherDisplay:10.37,2013-07-17 12:58:00,
2013-07-17 08:03:00,77.2,69.4,30.27,SSW,212,2.7,6.9,77,0.00,CLR,,0.00,290.0,WeatherDisplay:10.37,2013-07-17 13:03:00,
2013-07-17 08:08:00,77.6,69.4,30.27,SSE,168,2.0,4.6,76,0.00,CLR,,0.00,327.0,WeatherDisplay:10.37,2013-07-17 13:08:00,
2013-07-17 08:13:00,77.9,69.7,30.28,South,178,2.9,5.0,76,0.00,CLR,,0.00,188.0,WeatherDisplay:10.37,2013-07-17 13:13:00,
2013-07-17 08:18:00,78.2,69.6,30.27,SW,236,3.2,6.0,75,0.00,CLR,,0.00,130.0,WeatherDisplay:10.37,2013-07-17 13:18:00,
2013-07-17 08:23:00,78.0,69.8,30.27,SSE,156,3.5,6.0,76,0.00,CLR,,0.00,369.0,WeatherDisplay:10.37,2013-07-17 13:23:00,
2013-07-17 08:28:00,78.1,69.5,30.28,SSW,200,3.4,6.0,75,0.00,CLR,,0.00,146.0,WeatherDisplay:10.37,2013-07-17 13:28:00,
2013-07-17 08:33:00,78.2,69.6,30.28,SSW,192,3.5,6.9,75,0.00,CLR,,0.00,207.0,WeatherDisplay:10.37,2013-07-17 13:33:00,
2013-07-17 08:38:00,78.2,69.2,30.28,SSW,196,3.6,8.1,74,0.00,CLR,,0.00,373.0,WeatherDisplay:10.37,2013-07-17 13:38:00,
2013-07-17 08:43:00,78.9,69.9,30.28,SSE,167,2.7,5.0,74,0.00,CLR,,0.00,269.0,WeatherDisplay:10.37,2013-07-17 13:43:00,
2013-07-17 08:48:00,79.4,69.6,30.28,SW,227,4.0,5.0,72,0.00,CLR,,0.00,171.0,WeatherDisplay:10.37,2013-07-17 13:48:00,
2013-07-17 08:53:00,79.4,69.6,30.28,South,180,4.4,8.0,72,0.00,CLR,,0.00,185.0,WeatherDisplay:10.37,2013-07-17 13:53:00,
2013-07-17 08:58:00,79.5,69.7,30.28,SSW,204,4.1,6.0,72,0.00,CLR,,0.00,225.0,WeatherDisplay:10.37,2013-07-17 13:58:00,
2013-07-17 09:03:00,80.0,70.6,30.27,South,179,2.5,6.0,73,0.00,SCT,,0.00,452.0,WeatherDisplay:10.37,2013-07-17 14:03:00,
2013-07-17 09:08:00,80.3,69.6,30.28,South,174,3.2,6.0,70,0.00,SCT,,0.00,471.0,WeatherDisplay:10.37,2013-07-17 14:08:00,
2013-07-17 09:13:00,80.8,70.1,30.28,WSW,246,2.1,3.5,70,0.00,SCT,,0.00,499.0,WeatherDisplay:10.37,2013-07-17 14:13:00,
2013-07-17 09:18:00,81.3,70.2,30.28,SSW,194,2.9,6.9,69,0.00,SCT,,0.00,295.0,WeatherDisplay:10.37,2013-07-17 14:18:00,
2013-07-17 09:23:00,81.5,70.3,30.27,SW,234,1.8,4.0,69,0.00,SCT,,0.00,504.0,WeatherDisplay:10.37,2013-07-17 14:23:00,
2013-07-17 09:28:00,81.8,70.2,30.27,SW,215,4.5,6.0,68,0.00,SCT,,0.00,510.0,WeatherDisplay:10.37,2013-07-17 14:28:00,
2013-07-17 09:33:00,81.8,70.6,30.27,SSW,213,3.6,6.0,69,0.00,SCT,,0.00,519.0,WeatherDisplay:10.37,2013-07-17 14:33:00,
2013-07-17 09:38:00,82.4,70.3,30.27,South,169,3.1,6.0,67,0.00,SCT,,0.00,533.0,WeatherDisplay:10.37,2013-07-17 14:38:00,
2013-07-17 09:43:00,82.9,70.8,30.27,WSW,257,3.9,7.0,67,0.00,SCT,,0.00,543.0,WeatherDisplay:10.37,2013-07-17 14:43:00,
2013-07-17 09:48:00,82.8,70.7,30.27,SW,217,3.1,4.0,67,0.00,SCT,,0.00,557.0,WeatherDisplay:10.37,2013-07-17 14:48:00,
2013-07-17 09:53:00,83.1,70.6,30.27,SSW,205,4.7,8.1,66,0.00,SCT,,0.00,570.0,WeatherDisplay:10.37,2013-07-17 14:53:00,
2013-07-17 09:58:00,83.5,70.9,30.27,SSW,196,4.6,7.0,66,0.00,SCT,,0.00,580.0,WeatherDisplay:10.37,2013-07-17 14:58:00,
2013-07-17 10:03:00,84.3,71.2,30.27,West,278,2.2,3.5,65,0.00,FEW,,0.00,587.0,WeatherDisplay:10.37,2013-07-17 15:03:00,
2013-07-17 10:08:00,84.6,71.1,30.27,WSW,257,4.5,8.0,64,0.00,FEW,,0.00,601.0,WeatherDisplay:10.37,2013-07-17 15:08:00,
2013-07-17 10:13:00,84.5,71.0,30.27,SW,216,3.9,7.0,64,0.00,FEW,,0.00,617.0,WeatherDisplay:10.37,2013-07-17 15:13:00,
2013-07-17 10:18:00,85.1,71.1,30.27,SE,143,5.9,11.5,63,0.00,FEW,,0.00,626.0,WeatherDisplay:10.37,2013-07-17 15:18:00,
2013-07-17 10:23:00,85.4,71.4,30.27,South,177,2.6,5.8,63,0.00,FEW,,0.00,636.0,WeatherDisplay:10.37,2013-07-17 15:23:00,
2013-07-17 10:28:00,85.8,71.3,30.27,SSW,204,4.3,8.1,62,0.00,FEW,,0.00,649.0,WeatherDisplay:10.37,2013-07-17 15:28:00,
2013-07-17 10:33:00,86.3,70.3,30.27,WSW,244,4.7,11.5,59,0.00,FEW,,0.00,663.0,WeatherDisplay:10.37,2013-07-17 15:33:00,
2013-07-17 10:39:00,87.0,70.9,30.27,SW,222,2.4,5.0,59,0.00,FEW,,0.00,663.0,WeatherDisplay:10.37,2013-07-17 15:39:00,
2013-07-17 10:44:00,87.0,70.9,30.27,South,184,2.9,6.0,59,0.00,FEW,,0.00,680.0,WeatherDisplay:10.37,2013-07-17 15:44:00,
2013-07-17 10:50:00,87.1,71.5,30.26,SW,223,2.1,4.0,60,0.00,FEW,,0.00,691.0,WeatherDisplay:10.37,2013-07-17 15:50:00,
2013-07-17 10:55:00,87.4,70.8,30.26,SW,214,3.1,5.0,58,0.00,FEW,,0.00,703.0,WeatherDisplay:10.37,2013-07-17 15:55:00,
2013-07-17 11:00:00,87.4,70.3,30.26,West,270,3.5,9.2,57,0.00,FEW,,0.00,714.0,WeatherDisplay:10.37,2013-07-17 16:00:00,
2013-07-17 11:05:00,87.6,70.5,30.27,WSW,257,3.8,7.0,57,0.00,CLR,,0.00,717.0,WeatherDisplay:10.37,2013-07-17 16:05:00,
2013-07-17 11:10:00,87.4,70.8,30.27,SSW,209,3.3,5.0,58,0.00,CLR,,0.00,731.0,WeatherDisplay:10.37,2013-07-17 16:10:00,
2013-07-17 11:15:00,87.2,70.6,30.27,West,280,4.5,7.0,58,0.00,CLR,,0.00,731.0,WeatherDisplay:10.37,2013-07-17 16:15:00,
2013-07-17 11:20:00,88.0,71.4,30.27,SW,216,1.0,3.5,58,0.00,CLR,,0.00,745.0,WeatherDisplay:10.37,2013-07-17 16:20:00,
2013-07-17 11:25:00,88.8,72.1,30.27,South,175,2.8,6.0,58,0.00,CLR,,0.00,751.0,WeatherDisplay:10.37,2013-07-17 16:25:00,
2013-07-17 11:30:00,89.3,71.0,30.27,SW,227,3.9,8.1,55,0.00,CLR,,0.00,758.0,WeatherDisplay:10.37,2013-07-17 16:30:00,
2013-07-17 11:35:00,88.9,71.2,30.27,WSW,240,3.1,5.0,56,0.00,CLR,,0.00,770.0,WeatherDisplay:10.37,2013-07-17 16:35:00,
2013-07-17 11:40:00,89.0,71.3,30.27,SSE,164,5.0,8.0,56,0.00,CLR,,0.00,775.0,WeatherDisplay:10.37,2013-07-17 16:40:00,
2013-07-17 11:45:00,89.5,71.2,30.27,South,175,2.6,6.0,55,0.00,CLR,,0.00,782.0,WeatherDisplay:10.37,2013-07-17 16:45:00,
2013-07-17 11:50:00,89.6,70.2,30.27,West,275,1.2,5.8,53,0.00,CLR,,0.00,786.0,WeatherDisplay:10.37,2013-07-17 16:50:00,
2013-07-17 11:55:00,89.5,70.7,30.27,South,174,4.7,7.0,54,0.00,CLR,,0.00,795.0,WeatherDisplay:10.37,2013-07-17 16:55:00,
2013-07-17 12:00:00,89.2,70.9,30.27,SW,222,1.0,3.5,55,0.00,CLR,,0.00,798.0,WeatherDisplay:10.37,2013-07-17 17:00:00,
2013-07-17 12:05:00,89.6,71.3,30.27,SSW,210,5.4,9.0,55,0.00,CLR,,0.00,809.0,WeatherDisplay:10.37,2013-07-17 17:05:00,
2013-07-17 12:10:00,89.9,71.0,30.27,WSW,249,4.4,8.1,54,0.00,CLR,,0.00,810.0,WeatherDisplay:10.37,2013-07-17 17:10:00,
2013-07-17 12:15:00,90.2,70.2,30.27,WNW,295,2.8,6.9,52,0.00,CLR,,0.00,816.0,WeatherDisplay:10.37,2013-07-17 17:15:00,
2013-07-17 12:20:00,90.6,70.0,30.27,WNW,303,4.5,9.2,51,0.00,CLR,,0.00,828.0,WeatherDisplay:10.37,2013-07-17 17:20:00,
2013-07-17 12:25:00,90.9,71.4,30.27,South,187,2.3,6.0,53,0.00,CLR,,0.00,826.0,WeatherDisplay:10.37,2013-07-17 17:25:00,
2013-07-17 12:30:00,91.1,71.6,30.27,South,184,5.2,10.4,53,0.00,CLR,,0.00,826.0,WeatherDisplay:10.37,2013-07-17 17:30:00,
2013-07-17 12:35:00,90.4,70.9,30.27,SSE,147,5.2,7.0,53,0.00,CLR,,0.00,830.0,WeatherDisplay:10.37,2013-07-17 17:35:00,
2013-07-17 12:40:00,90.5,71.6,30.27,WSW,238,2.0,4.0,54,0.00,CLR,,0.00,833.0,WeatherDisplay:10.37,2013-07-17 17:40:00,
2013-07-17 12:45:00,91.0,71.5,30.27,South,173,5.1,7.0,53,0.00,CLR,,0.00,838.0,WeatherDisplay:10.37,2013-07-17 17:45:00,
2013-07-17 12:50:00,90.6,71.1,30.27,SW,221,4.8,8.1,53,0.00,CLR,,0.00,842.0,WeatherDisplay:10.37,2013-07-17 17:50:00,
2013-07-17 12:55:00,90.3,71.4,30.27,SSE,153,3.1,5.8,54,0.00,CLR,,0.00,838.0,WeatherDisplay:10.37,2013-07-17 17:55:00,
2013-07-17 13:00:00,91.4,70.1,30.26,SW,236,2.9,4.0,50,0.00,CLR,,0.00,847.0,WeatherDisplay:10.37,2013-07-17 18:00:00,
2013-07-17 13:05:00,92.0,71.3,30.27,SW,229,3.2,8.1,51,0.00,CLR,,0.00,847.0,WeatherDisplay:10.37,2013-07-17 18:05:00,
2013-07-17 13:10:00,92.4,69.2,30.27,West,261,5.7,9.2,47,0.00,CLR,,0.00,851.0,WeatherDisplay:10.37,2013-07-17 18:10:00,
2013-07-17 13:15:00,92.1,69.6,30.26,WNW,288,6.0,11.5,48,0.00,CLR,,0.00,856.0,WeatherDisplay:10.37,2013-07-17 18:15:00,
2013-07-17 13:20:00,91.9,70.0,30.26,WSW,248,3.9,7.0,49,0.00,CLR,,0.00,854.0,WeatherDisplay:10.37,2013-07-17 18:20:00,
2013-07-17 13:25:00,92.2,69.7,30.26,WNW,301,4.8,9.2,48,0.00,CLR,,0.00,874.0,WeatherDisplay:10.37,2013-07-17 18:25:00,
2013-07-17 13:30:00,92.7,69.5,30.26,West,266,2.2,4.0,47,0.00,CLR,,0.00,888.0,WeatherDisplay:10.37,2013-07-17 18:30:00,
2013-07-17 13:35:00,92.7,69.5,30.26,West,280,4.6,8.1,47,0.00,CLR,,0.00,211.0,WeatherDisplay:10.37,2013-07-17 18:35:00,
2013-07-17 13:40:00,92.3,71.0,30.26,SSW,209,3.0,9.0,50,0.00,CLR,,0.00,919.0,WeatherDisplay:10.37,2013-07-17 18:40:00,
2013-07-17 13:45:00,92.4,70.5,30.26,SSW,201,4.2,8.1,49,0.00,CLR,,0.00,877.0,WeatherDisplay:10.37,2013-07-17 18:45:00,
2013-07-17 13:50:00,92.7,69.5,30.25,South,186,3.7,7.0,47,0.00,CLR,,0.00,867.0,WeatherDisplay:10.37,2013-07-17 18:50:00,
2013-07-17 13:55:00,93.1,70.5,30.25,WNW,288,4.3,7.0,48,0.00,CLR,,0.00,867.0,WeatherDisplay:10.37,2013-07-17 18:55:00,
2013-07-17 14:00:00,93.1,70.5,30.25,SSW,212,3.9,8.1,48,0.00,CLR,,0.00,914.0,WeatherDisplay:10.37,2013-07-17 19:00:00,
2013-07-17 14:05:00,93.0,71.0,30.25,WSW,245,2.1,8.1,49,0.00,CLR,,0.00,865.0,WeatherDisplay:10.37,2013-07-17 19:05:00,
2013-07-17 14:10:00,93.2,70.6,30.25,WSW,254,4.8,10.4,48,0.00,CLR,,0.00,195.0,WeatherDisplay:10.37,2013-07-17 19:10:00,
2013-07-17 14:15:00,92.8,69.6,30.25,WNW,302,6.7,13.0,47,0.00,CLR,,0.00,867.0,WeatherDisplay:10.37,2013-07-17 19:15:00,
2013-07-17 14:20:00,92.6,69.4,30.25,South,186,4.9,10.4,47,0.00,CLR,,0.00,777.0,WeatherDisplay:10.37,2013-07-17 19:20:00,
2013-07-17 14:25:00,93.0,71.0,30.24,SSE,148,4.9,7.0,49,0.00,CLR,,0.00,831.0,WeatherDisplay:10.37,2013-07-17 19:25:00,
2013-07-17 14:30:00,93.4,69.5,30.24,WSW,246,7.9,10.4,46,0.00,CLR,,0.00,835.0,WeatherDisplay:10.37,2013-07-17 19:30:00,
2013-07-17 14:35:00,93.5,70.2,30.24,SSE,159,2.3,5.0,47,0.00,CLR,,0.00,824.0,WeatherDisplay:10.37,2013-07-17 19:35:00,
2013-07-17 14:40:00,93.0,69.2,30.24,WNW,288,6.1,11.5,46,0.00,CLR,,0.00,831.0,WeatherDisplay:10.37,2013-07-17 19:40:00,
2013-07-17 14:45:00,93.5,70.9,30.24,South,173,2.3,5.8,48,0.00,CLR,,0.00,837.0,WeatherDisplay:10.37,2013-07-17 19:45:00,
2013-07-17 14:50:00,94.0,69.4,30.23,SSW,213,4.7,8.1,45,0.00,CLR,,0.00,817.0,WeatherDisplay:10.37,2013-07-17 19:50:00,
2013-07-17 14:55:00,93.9,70.0,30.24,WNW,299,3.9,6.0,46,0.00,CLR,,0.00,824.0,WeatherDisplay:10.37,2013-07-17 19:55:00,
2013-07-17 15:00:00,94.0,69.4,30.23,SW,215,6.4,9.0,45,0.00,CLR,,0.00,812.0,WeatherDisplay:10.37,2013-07-17 20:00:00,
2013-07-17 15:05:00,93.7,69.1,30.23,SW,219,6.0,12.0,45,0.00,FEW,FEW,0.00,800.0,WeatherDisplay:10.37,2013-07-17 20:05:00,
2013-07-17 15:10:00,93.3,70.1,30.23,SSW,210,3.0,10.0,47,0.00,FEW,FEW,0.00,780.0,WeatherDisplay:10.37,2013-07-17 20:10:00,
2013-07-17 15:15:00,94.0,70.7,30.23,SSW,202,5.0,8.0,47,0.00,FEW,FEW,0.00,780.0,WeatherDisplay:10.37,2013-07-17 20:15:00,
2013-07-17 15:20:00,93.1,70.5,30.23,SSW,211,3.0,9.0,48,0.00,FEW,FEW,0.00,197.0,WeatherDisplay:10.37,2013-07-17 20:20:00,
2013-07-17 15:25:00,92.8,70.3,30.23,SSW,197,5.0,7.0,48,0.00,FEW,FEW,0.00,775.0,WeatherDisplay:10.37,2013-07-17 20:25:00,
2013-07-17 15:30:00,94.0,69.4,30.23,SSW,204,5.0,9.0,45,0.00,FEW,FEW,0.00,770.0,WeatherDisplay:10.37,2013-07-17 20:30:00,
2013-07-17 15:35:00,94.0,68.8,30.23,SSW,201,5.0,12.0,44,0.00,FEW,FEW,0.00,773.0,WeatherDisplay:10.37,2013-07-17 20:35:00,
2013-07-17 15:40:00,93.1,69.3,30.23,SSW,204,5.0,8.0,46,0.00,FEW,FEW,0.00,271.0,WeatherDisplay:10.37,2013-07-17 20:40:00,
2013-07-17 15:45:00,92.1,69.6,30.22,SW,230,2.0,9.0,48,0.00,FEW,FEW,0.00,230.0,WeatherDisplay:10.37,2013-07-17 20:45:00,
2013-07-17 15:50:00,92.7,70.8,30.22,WSW,241,3.0,7.0,49,0.00,FEW,FEW,0.00,742.0,WeatherDisplay:10.37,2013-07-17 20:50:00,
2013-07-17 15:55:00,93.5,71.4,30.22,SSW,209,3.0,10.0,49,0.00,FEW,FEW,0.00,128.0,WeatherDisplay:10.37,2013-07-17 20:55:00,
2013-07-17 16:00:00,92.6,71.3,30.22,South,180,5.0,9.0,50,0.00,FEW,FEW,0.00,740.0,WeatherDisplay:10.37,2013-07-17 21:00:00,
2013-07-17 16:05:00,92.8,71.4,30.22,South,176,5.0,9.0,50,0.00,FEW,FEW,0.00,738.0,WeatherDisplay:10.37,2013-07-17 21:05:00,
2013-07-17 16:10:00,92.2,71.5,30.21,South,180,3.0,10.0,51,0.00,FEW,FEW,0.00,717.0,WeatherDisplay:10.37,2013-07-17 21:10:00,
2013-07-17 16:15:00,92.2,71.5,30.21,SSW,199,1.0,9.0,51,0.00,FEW,FEW,0.00,731.0,WeatherDisplay:10.37,2013-07-17 21:15:00,
2013-07-17 16:20:00,92.6,71.8,30.21,SSW,212,2.0,7.0,51,0.00,FEW,FEW,0.00,780.0,WeatherDisplay:10.37,2013-07-17 21:20:00,
2013-07-17 16:25:00,92.6,71.2,30.21,SSW,196,3.0,8.0,50,0.00,FEW,FEW,0.00,724.0,WeatherDisplay:10.37,2013-07-17 21:25:00,
2013-07-17 16:30:00,93.2,71.2,30.21,South,188,3.0,6.0,49,0.00,FEW,FEW,0.00,211.0,WeatherDisplay:10.37,2013-07-17 21:30:00,
2013-07-17 16:35:00,91.8,70.5,30.21,SSW,198,3.0,7.0,50,0.00,FEW,FEW,0.00,740.0,WeatherDisplay:10.37,2013-07-17 21:35:00,
2013-07-17 16:40:00,91.8,71.1,30.21,SSW,207,3.0,7.0,51,0.00,FEW,FEW,0.00,679.0,WeatherDisplay:10.37,2013-07-17 21:40:00,
2013-07-17 16:45:00,91.8,71.7,30.21,SSW,207,3.0,8.0,52,0.00,FEW,FEW,0.00,694.0,WeatherDisplay:10.37,2013-07-17 21:45:00,
2013-07-17 16:50:00,91.4,71.3,30.21,South,184,3.0,8.0,52,0.00,FEW,FEW,0.00,643.0,WeatherDisplay:10.37,2013-07-17 21:50:00,
2013-07-17 16:55:00,91.3,71.3,30.21,South,180,5.0,8.0,52,0.00,FEW,FEW,0.00,640.0,WeatherDisplay:10.37,2013-07-17 21:55:00,
2013-07-17 17:00:00,91.1,71.6,30.21,South,188,5.0,7.0,53,0.00,FEW,FEW,0.00,603.0,WeatherDisplay:10.37,2013-07-17 22:00:00,
2013-07-17 17:05:00,91.4,71.3,30.20,South,183,3.0,8.0,52,0.00,SCT,SCT,0.00,601.0,WeatherDisplay:10.37,2013-07-17 22:05:00,
2013-07-17 17:10:00,91.6,71.5,30.20,South,185,2.0,9.0,52,0.00,SCT,SCT,0.00,573.0,WeatherDisplay:10.37,2013-07-17 22:10:00,
2013-07-17 17:15:00,91.1,71.0,30.20,South,190,5.0,12.0,52,0.00,SCT,SCT,0.00,127.0,WeatherDisplay:10.37,2013-07-17 22:15:00,
2013-07-17 17:21:00,90.3,70.8,30.20,SW,234,3.2,5.0,53,0.00,SCT,,0.00,564.0,WeatherDisplay:10.37,2013-07-17 22:21:00,
2013-07-17 17:26:00,90.8,71.9,30.20,SSE,160,2.8,5.0,54,0.00,SCT,,0.00,508.0,WeatherDisplay:10.37,2013-07-17 22:26:00,
2013-07-17 17:31:00,91.1,71.0,30.20,SW,221,3.2,5.0,52,0.00,SCT,,0.00,482.0,WeatherDisplay:10.37,2013-07-17 22:31:00,
2013-07-17 17:36:00,90.8,70.7,30.20,South,181,2.9,6.9,52,0.00,SCT,,0.00,473.0,WeatherDisplay:10.37,2013-07-17 22:36:00,
2013-07-17 17:41:00,90.8,70.7,30.20,SSE,162,1.8,8.0,52,0.00,SCT,,0.00,454.0,WeatherDisplay:10.37,2013-07-17 22:41:00,
2013-07-17 17:46:00,90.8,70.7,30.20,South,173,3.4,8.1,52,0.00,SCT,,0.00,459.0,WeatherDisplay:10.37,2013-07-17 22:46:00,
2013-07-17 17:51:00,91.3,71.8,30.20,SW,221,2.0,4.0,53,0.00,SCT,,0.00,446.0,WeatherDisplay:10.37,2013-07-17 22:51:00,
2013-07-17 17:56:00,91.3,71.8,30.19,SSE,162,2.3,4.0,53,0.00,SCT,,0.00,399.0,WeatherDisplay:10.37,2013-07-17 22:56:00,
2013-07-17 18:01:00,92.1,71.4,30.19,West,264,3.1,5.0,51,0.00,SCT,,0.00,411.0,WeatherDisplay:10.37,2013-07-17 23:01:00,
2013-07-17 18:06:00,91.9,71.2,30.19,South,178,1.1,4.6,51,0.00,CLR,,0.00,408.0,WeatherDisplay:10.37,2013-07-17 23:06:00,
2013-07-17 18:11:00,91.7,71.6,30.19,SSE,159,1.5,3.5,52,0.00,CLR,,0.00,394.0,WeatherDisplay:10.37,2013-07-17 23:11:00,
2013-07-17 18:16:00,91.2,70.5,30.19,South,182,2.3,11.5,51,0.00,CLR,,0.00,390.0,WeatherDisplay:10.37,2013-07-17 23:16:00,
2013-07-17 18:21:00,90.4,70.4,30.19,South,181,4.8,11.5,52,0.00,CLR,,0.00,330.0,WeatherDisplay:10.37,2013-07-17 23:21:00,
2013-07-17 18:26:00,89.8,70.4,30.19,South,176,2.2,4.0,53,0.00,CLR,,0.00,98.0,WeatherDisplay:10.37,2013-07-17 23:26:00,
2013-07-17 18:31:00,89.6,70.2,30.19,South,184,3.1,6.0,53,0.00,CLR,,0.00,380.0,WeatherDisplay:10.37,2013-07-17 23:31:00,
2013-07-17 18:36:00,89.7,70.3,30.19,South,176,4.3,7.0,53,0.00,CLR,,0.00,318.0,WeatherDisplay:10.37,2013-07-17 23:36:00,
2013-07-17 18:41:00,89.5,70.1,30.19,SSW,209,2.2,3.5,53,0.00,CLR,,0.00,306.0,WeatherDisplay:10.37,2013-07-17 23:41:00,
2013-07-17 18:46:00,90.0,70.6,30.19,South,190,2.0,5.0,53,0.00,CLR,,0.00,279.0,WeatherDisplay:10.37,2013-07-17 23:46:00,
2013-07-17 18:51:00,89.8,70.9,30.19,South,182,2.6,5.0,54,0.00,CLR,,0.00,267.0,WeatherDisplay:10.37,2013-07-17 23:51:00,
2013-07-17 18:56:00,89.5,70.7,30.19,SSE,157,3.2,6.0,54,0.00,CLR,,0.00,248.0,WeatherDisplay:10.37,2013-07-17 23:56:00,
2013-07-17 19:01:00,89.3,71.0,30.18,SW,235,3.0,6.0,55,0.00,CLR,,0.00,236.0,WeatherDisplay:10.37,2013-07-18 00:01:00,
2013-07-17 19:06:00,89.0,71.3,30.18,SSW,211,2.5,5.8,56,0.00,CLR,,0.00,229.0,WeatherDisplay:10.37,2013-07-18 00:06:00,
2013-07-17 19:11:00,88.9,71.2,30.18,South,182,2.2,3.5,56,0.00,CLR,,0.00,218.0,WeatherDisplay:10.37,2013-07-18 00:11:00,
2013-07-17 19:16:00,88.7,71.5,30.18,SSW,205,1.6,4.0,57,0.00,CLR,,0.00,197.0,WeatherDisplay:10.37,2013-07-18 00:16:00,
2013-07-17 19:21:00,88.5,71.3,30.18,South,190,1.6,3.5,57,0.00,CLR,,0.00,183.0,WeatherDisplay:10.37,2013-07-18 00:21:00,
2013-07-17 19:26:00,88.6,71.4,30.17,South,173,3.7,6.0,57,0.00,CLR,,0.00,169.0,WeatherDisplay:10.37,2013-07-18 00:26:00,
2013-07-17 19:31:00,88.5,71.3,30.18,SSW,197,1.7,4.0,57,0.00,CLR,,0.00,153.0,WeatherDisplay:10.37,2013-07-18 00:31:00,
2013-07-17 19:36:00,88.3,72.2,30.17,SSW,197,0.6,2.0,59,0.00,CLR,,0.00,137.0,WeatherDisplay:10.37,2013-07-18 00:36:00,
2013-07-17 19:41:00,88.1,72.0,30.17,SSW,197,1.1,3.5,59,0.00,CLR,,0.00,125.0,WeatherDisplay:10.37,2013-07-18 00:41:00,
2013-07-17 19:46:00,88.0,72.9,30.17,SSW,197,1.0,2.3,61,0.00,CLR,,0.00,109.0,WeatherDisplay:10.37,2013-07-18 00:46:00,
2013-07-17 19:51:00,87.8,72.7,30.17,SSW,197,0.9,2.3,61,0.00,CLR,,0.00,97.0,WeatherDisplay:10.37,2013-07-18 00:51:00,
2013-07-17 19:56:00,87.7,73.1,30.17,SSW,197,1.6,3.5,62,0.00,CLR,,0.00,84.0,WeatherDisplay:10.37,2013-07-18 00:56:00,
2013-07-17 20:01:00,87.2,73.1,30.17,SSW,197,0.0,0.0,63,0.00,CLR,,0.00,70.0,WeatherDisplay:10.37,2013-07-18 01:01:00,
2013-07-17 20:06:00,86.7,73.1,30.17,SSW,197,1.3,2.3,64,0.00,CLR,,0.00,62.0,WeatherDisplay:10.37,2013-07-18 01:06:00,
2013-07-17 20:11:00,86.4,73.2,30.16,SSW,197,1.0,2.3,65,0.00,CLR,,0.00,53.0,WeatherDisplay:10.37,2013-07-18 01:11:00,
2013-07-17 20:16:00,86.1,73.4,30.17,SSW,197,0.1,1.2,66,0.00,CLR,,0.00,40.0,WeatherDisplay:10.37,2013-07-18 01:16:00,
2013-07-17 20:21:00,85.9,73.2,30.16,SSW,197,0.0,1.2,66,0.00,CLR,,0.00,33.0,WeatherDisplay:10.37,2013-07-18 01:21:00,
2013-07-17 20:26:00,85.8,73.6,30.16,SSW,197,0.6,1.2,67,0.00,CLR,,0.00,21.0,WeatherDisplay:10.37,2013-07-18 01:26:00,
2013-07-17 20:31:00,85.1,73.3,30.16,SSW,197,0.1,1.2,68,0.00,CLR,,0.00,18.0,WeatherDisplay:10.37,2013-07-18 01:31:00,
2013-07-17 20:36:00,84.5,73.6,30.16,SSW,197,0.0,0.0,70,0.00,CLR,,0.00,14.0,WeatherDisplay:10.37,2013-07-18 01:36:00,
2013-07-17 20:41:00,83.8,73.4,30.16,SSW,197,0.0,0.0,71,0.00,CLR,,0.00,9.0,WeatherDisplay:10.37,2013-07-18 01:41:00,
2013-07-17 20:46:00,82.7,72.3,30.16,SSW,197,0.0,0.0,71,0.00,CLR,,0.00,7.0,WeatherDisplay:10.37,2013-07-18 01:46:00,
2013-07-17 20:51:00,82.2,72.3,30.16,SSW,197,0.0,0.0,72,0.00,CLR,,0.00,5.0,WeatherDisplay:10.37,2013-07-18 01:51:00,
2013-07-17 20:56:00,82.2,73.9,30.16,SSW,197,0.0,0.0,76,0.00,CLR,,0.00,0.0,WeatherDisplay:10.37,2013-07-18 01:56:00,
2013-07-17 21:01:00,81.9,74.0,30.16,SSW,197,0.0,0.0,77,0.00,CLR,,0.00,0.0,WeatherDisplay:10.37,2013-07-18 02:01:00,
2013-07-17 21:06:00,81.7,73.0,30.15,SSW,197,0.0,0.0,75,0.00,CLR,,0.00,0.0,WeatherDisplay:10.37,2013-07-18 02:06:00,
2013-07-17 21:11:00,81.1,72.8,30.15,SSW,197,0.0,1.0,76,0.00,CLR,,0.00,0.0,WeatherDisplay:10.37,2013-07-18 02:11:00,
2013-07-17 21:17:00,80.9,73.4,30.15,SSW,197,0.0,0.0,78,0.00,CLR,,0.00,0.0,WeatherDisplay:10.37,2013-07-18 02:17:00,
2013-07-17 21:22:00,80.4,71.7,30.15,SSW,197,0.0,0.0,75,0.00,CLR,,0.00,0.0,WeatherDisplay:10.37,2013-07-18 02:22:00,
2013-07-17 21:27:00,80.0,72.9,30.15,SSW,197,0.0,0.0,79,0.00,CLR,,0.00,0.0,WeatherDisplay:10.37,2013-07-18 02:27:00,
2013-07-17 21:33:00,79.6,71.8,30.15,SSW,197,0.0,0.0,77,0.00,CLR,,0.00,0.0,WeatherDisplay:10.37,2013-07-18 02:33:00,
2013-07-17 21:38:00,79.3,71.8,30.15,SSW,197,0.0,0.0,78,0.00,CLR,,0.00,0.0,WeatherDisplay:10.37,2013-07-18 02:38:00,
2013-07-17 21:43:00,79.4,72.3,30.16,SSW,197,0.0,0.0,79,0.00,CLR,,0.00,0.0,WeatherDisplay:10.37,2013-07-18 02:43:00,
2013-07-17 21:48:00,79.2,71.7,30.16,SSW,197,0.0,0.0,78,0.00,CLR,,0.00,0.0,WeatherDisplay:10.37,2013-07-18 02:48:00,
2013-07-17 21:53:00,79.0,71.9,30.16,SSW,197,0.0,0.0,79,0.00,CLR,,0.00,0.0,WeatherDisplay:10.37,2013-07-18 02:53:00,
2013-07-17 21:58:00,79.1,72.4,30.16,SSW,197,0.0,0.0,80,0.00,CLR,,0.00,0.0,WeatherDisplay:10.37,2013-07-18 02:58:00,
2013-07-17 22:03:00,78.9,71.5,30.16,SSW,197,0.0,0.0,78,0.00,CLR,,0.00,0.0,WeatherDisplay:10.37,2013-07-18 03:03:00,
2013-07-17 22:08:00,78.4,70.6,30.16,SSW,197,0.0,0.0,77,0.00,CLR,,0.00,0.0,WeatherDisplay:10.37,2013-07-18 03:08:00,
2013-07-17 22:13:00,78.2,71.2,30.16,SSW,197,0.0,0.0,79,0.00,CLR,,0.00,0.0,WeatherDisplay:10.37,2013-07-18 03:13:00,
2013-07-17 22:18:00,78.4,72.4,30.16,SSW,197,0.0,0.0,82,0.00,CLR,,0.00,0.0,WeatherDisplay:10.37,2013-07-18 03:18:00,
2013-07-17 22:23:00,78.3,72.3,30.16,SSW,197,0.0,0.0,82,0.00,CLR,,0.00,0.0,WeatherDisplay:10.37,2013-07-18 03:23:00,
2013-07-17 22:28:00,78.3,72.3,30.16,SSW,197,0.0,0.0,82,0.00,CLR,,0.00,0.0,WeatherDisplay:10.37,2013-07-18 03:28:00,
2013-07-17 22:33:00,78.0,72.8,30.16,SSW,197,0.0,0.0,84,0.00,CLR,,0.00,0.0,WeatherDisplay:10.37,2013-07-18 03:33:00,
2013-07-17 22:38:00,77.7,72.5,30.16,SSW,197,0.0,0.0,84,0.00,CLR,,0.00,0.0,WeatherDisplay:10.37,2013-07-18 03:38:00,
2013-07-17 22:43:00,77.3,72.1,30.16,SSW,197,0.0,0.0,84,0.00,CLR,,0.00,0.0,WeatherDisplay:10.37,2013-07-18 03:43:00,
2013-07-17 22:48:00,77.1,71.5,30.16,SSW,197,0.0,0.0,83,0.00,CLR,,0.00,0.0,WeatherDisplay:10.37,2013-07-18 03:48:00,
2013-07-17 22:53:00,77.3,71.4,30.16,SSW,197,0.0,0.0,82,0.00,CLR,,0.00,0.0,WeatherDisplay:10.37,2013-07-18 03:53:00,
2013-07-17 22:58:00,76.8,71.6,30.16,SSW,197,0.0,0.0,84,0.00,CLR,,0.00,0.0,WeatherDisplay:10.37,2013-07-18 03:58:00,
2013-07-17 23:01:00,76.6,71.7,30.16,SSW,197,0.0,0.0,85,0.00,CLR,,0.00,0.0,WeatherDisplay:10.37,2013-07-18 04:01:00,
2013-07-17 23:02:00,76.6,71.7,30.16,SSW,197,0.0,0.0,85,0.00,CLR,,0.00,0.0,WeatherDisplay:10.37,2013-07-18 04:02:00,
2013-07-17 23:04:00,76.6,71.4,30.16,SSW,197,0.0,0.0,84,0.00,CLR,,0.00,0.0,WeatherDisplay:10.37,2013-07-18 04:04:00,
2013-07-17 23:05:00,76.7,72.2,30.16,SSW,197,0.0,0.0,86,0.00,CLR,,0.00,0.0,WeatherDisplay:10.37,2013-07-18 04:05:00,
2013-07-17 23:10:00,76.7,71.5,30.16,SSW,197,0.0,0.0,84,0.00,CLR,CLR,0.00,0.0,WeatherDisplay:10.37,2013-07-18 04:10:00,
2013-07-17 23:15:00,77.1,72.6,30.16,SSW,197,0.0,1.0,86,0.00,CLR,CLR,0.00,0.0,WeatherDisplay:10.37,2013-07-18 04:15:00,
2013-07-17 23:20:00,77.4,73.2,30.16,SSW,197,0.0,1.0,87,0.00,CLR,CLR,0.00,0.0,WeatherDisplay:10.37,2013-07-18 04:20:00,
2013-07-17 23:25:00,77.4,72.6,30.16,SSW,197,0.0,1.0,85,0.00,CLR,CLR,0.00,0.0,WeatherDisplay:10.37,2013-07-18 04:25:00,
2013-07-17 23:30:00,77.0,71.8,30.16,SSW,197,0.0,1.0,84,0.00,CLR,CLR,0.00,0.0,WeatherDisplay:10.37,2013-07-18 04:30:00,
2013-07-17 23:35:00,76.7,71.5,30.15,SSW,197,0.0,0.0,84,0.00,CLR,CLR,0.00,0.0,WeatherDisplay:10.37,2013-07-18 04:35:00,
2013-07-17 23:40:00,76.7,71.1,30.15,SSW,197,0.0,0.0,83,0.00,CLR,CLR,0.00,0.0,WeatherDisplay:10.37,2013-07-18 04:40:00,
2013-07-17 23:45:00,76.4,71.9,30.15,SSW,197,0.0,1.0,86,0.00,CLR,CLR,0.00,0.0,WeatherDisplay:10.37,2013-07-18 04:45:00,
2013-07-17 23:50:00,76.6,72.1,30.15,SSW,197,0.0,0.0,86,0.00,CLR,CLR,0.00,0.0,WeatherDisplay:10.37,2013-07-18 04:50:00,
2013-07-17 23:55:00,76.6,72.8,30.15,SSW,197,0.0,0.0,88,0.00,CLR,CLR,0.00,0.0,WeatherDisplay:10.37,2013-07-18 04:55:00,